Weather History for KEAT - March, 2013

Change the Weather History Date:

Wednesday, March 20, 2013

  Actual Average Record
Temperature  
Mean Temperature 43 °F 46 °F  
Max Temperature 52 °F 55 °F 70 °F (1960)
Min Temperature 33 °F 36 °F 26 °F (2002)
Degree Days  
Heating Degree Days 22 19  
Month to date heating degree days 497 453  
Since 1 July heating degree days 5360 4917  
Cooling Degree Days 0 0  
Month to date cooling degree days 0 0  
Year to date cooling degree days 0 0  
Moisture  
Dew Point 30 °F    
Average Humidity 85    
Maximum Humidity 96    
Minimum Humidity 38    
Precipitation  
Precipitation 0.28 in 0.02 in 0.65 in (1984)
Month to date precipitation 0.61 0.44  
Year to date precipitation 2.76 2.31  
Snow  
Snow 0.00 in - - ()
Month to date snowfall 1.0  
Snow Depth 0.00 in    
Sea Level Pressure  
Sea Level Pressure 29.63 in    
Wind  
Wind Speed 3 mph (WNW)    
Max Wind Speed 29 mph    
Max Gust Speed 40 mph    
Visibility 4 miles    
Events Fog , Rain , Snow    
T = Trace of Precipitation, MM = Missing Value Source: NWS Daily Summary

Daily Weather History Graph

Daily Weather History Graph

Search for Another Location

Airport or City:

Trip Planner

Search our weather history database for the weather conditions in past years. The results will help you decide how hot, cold, wet, or windy it might be!

Date:

Astronomy

Mar. 20, 2013 Rise Set
Actual Time 7:03 AM PDT 7:14 PM PDT
Civil Twilight 6:32 AM PDT 7:44 PM PDT
Nautical Twilight 5:56 AM PDT 8:20 PM PDT
Astronomical Twilight 5:19 AM PDT 8:58 PM PDT
Moon 12:31 PM PDT (3/20) 3:08 AM PDT (3/20)
Length of Visible Light 13h 12m
Length of Day
12h 11m
First Quarter, 60% of the Moon is Illuminated
Mar 20
First Quarter
Mar 27
Full
Apr 2
Last Quarter
Apr 10
New
Apr 18
First Quarter

Hourly Weather History & Observations

Time (PDT) Temp. Windchill Dew Point Humidity Pressure Visibility Wind Dir Wind Speed Gust Speed Precip Events Conditions
12:12 AM 32.0 °F - 28.4 °F 87% 29.78 in 1.2 mi Calm Calm - 0.01 in Snow Light Snow
12:32 AM 32.0 °F 28.7 °F 30.2 °F 93% 29.76 in 2.0 mi NW 3.5 mph - 0.01 in Snow Light Snow
12:50 AM 32.0 °F 28.7 °F 30.2 °F 93% 29.74 in 1.8 mi WNW 3.5 mph - 0.02 in Snow Light Snow
12:51 AM 32.0 °F 28.7 °F 30.0 °F 92% 29.77 in 1.8 mi WNW 3.5 mph - 0.02 in Snow Light Snow
1:05 AM 32.0 °F 27.5 °F 30.2 °F 93% 29.74 in 2.0 mi WNW 4.6 mph - 0.00 in Snow Light Snow
1:21 AM 32.0 °F 28.7 °F 30.2 °F 93% 29.73 in 1.8 mi NW 3.5 mph - 0.01 in Snow Light Snow
1:37 AM 32.0 °F - 30.2 °F 93% 29.72 in 2.5 mi Calm Calm - 0.01 in Snow Light Snow
1:44 AM 32.0 °F - 30.2 °F 93% 29.72 in 3.0 mi Calm Calm - 0.01 in Snow Light Snow
1:55 AM 32.0 °F - 30.0 °F 92% 29.73 in 2.5 mi Calm Calm - 0.02 in   Overcast
2:21 AM 32.0 °F 28.7 °F 30.2 °F 93% 29.69 in 4.0 mi WSW 3.5 mph - 0.01 in   Overcast
2:24 AM 32.0 °F - 30.2 °F 93% 29.69 in 6.0 mi Calm Calm - 0.01 in   Overcast
2:26 AM 32.0 °F - 30.2 °F 93% 29.68 in 7.0 mi Calm Calm - 0.01 in Rain Light Freezing Rain
2:32 AM 32.0 °F 28.7 °F 30.2 °F 93% 29.68 in 2.5 mi West 3.5 mph - 0.01 in Rain Light Freezing Rain
2:37 AM 32.0 °F 28.7 °F 30.2 °F 93% 29.68 in 1.0 mi NNW 3.5 mph - 0.01 in Rain Light Freezing Rain
2:45 AM 32.0 °F 28.7 °F 30.2 °F 93% 29.67 in 1.8 mi NW 3.5 mph - 0.01 in Rain Light Freezing Rain
2:48 AM 32.0 °F 28.7 °F 30.2 °F 93% 29.67 in 3.0 mi NW 3.5 mph - 0.01 in   Overcast
2:55 AM 32.0 °F - 30.9 °F 96% 29.69 in 5.0 mi Calm Calm - 0.01 in   Overcast
3:11 AM 32.0 °F - 30.2 °F 93% 29.66 in 2.5 mi Calm Calm - 0.01 in   Overcast
3:17 AM 32.0 °F - 30.2 °F 93% 29.66 in 0.8 mi Calm Calm - 0.01 in   Overcast
3:26 AM 32.0 °F 28.7 °F 30.2 °F 93% 29.65 in 0.5 mi SSW 3.5 mph - 0.01 in Fog Fog
3:36 AM 32.0 °F - 30.2 °F 93% 29.65 in 0.2 mi Calm Calm - 0.02 in Fog Fog
3:51 AM 32.0 °F - 30.2 °F 93% 29.64 in 0.5 mi Calm Calm - 0.02 in Fog Fog
3:55 AM 32.0 °F - 30.0 °F 92% 29.66 in 0.8 mi Calm Calm - 0.02 in   Mist
4:01 AM 32.0 °F - 30.2 °F 93% 29.64 in 2.0 mi Calm Calm - N/A   Mist
4:07 AM 32.0 °F - 30.2 °F 93% 29.63 in 0.8 mi Calm Calm - N/A   Overcast
4:22 AM 32.0 °F 28.7 °F 30.2 °F 93% 29.63 in 1.2 mi North 3.5 mph - 0.01 in   Overcast
4:26 AM 32.0 °F 28.7 °F 30.2 °F 93% 29.63 in 3.0 mi NNW 3.5 mph - 0.01 in   Overcast
4:37 AM 32.0 °F - 30.2 °F 93% 29.62 in 10.0 mi Calm Calm - 0.01 in   Overcast
4:55 AM 32.0 °F - 30.9 °F 96% 29.63 in 10.0 mi Calm Calm - 0.02 in   Overcast
5:01 AM 32.0 °F 28.7 °F 30.2 °F 93% 29.61 in 1.2 mi SW 3.5 mph - N/A   Overcast
5:07 AM 32.0 °F - 30.2 °F 93% 29.60 in 0.2 mi Calm Calm - N/A Fog Fog
5:34 AM 32.0 °F - 30.2 °F 93% 29.60 in 0.5 mi Calm Calm - 0.01 in Fog Fog
5:49 AM 32.0 °F - 30.2 °F 93% 29.59 in 1.0 mi Calm Calm - 0.01 in   Overcast
5:55 AM 32.0 °F - 30.9 °F 96% 29.61 in 0.8 mi Calm Calm - 0.01 in   Overcast
5:59 AM 33.8 °F - 30.2 °F 87% 29.59 in 1.0 mi Calm Calm - N/A   Overcast
6:06 AM 33.8 °F - 30.2 °F 87% 29.58 in 3.0 mi Calm Calm - 0.01 in   Overcast
6:18 AM 33.8 °F - 30.2 °F 87% 29.58 in 5.0 mi Calm Calm - 0.01 in   Overcast
6:26 AM 33.8 °F 30.8 °F 30.2 °F 87% 29.58 in 1.8 mi WSW 3.5 mph - 0.01 in   Overcast
6:35 AM 33.8 °F - 30.2 °F 87% 29.58 in 0.5 mi Calm Calm - 0.02 in Fog Fog
6:55 AM 33.1 °F - 30.9 °F 92% 29.58 in 0.5 mi Calm Calm - 0.03 in Fog Fog
7:12 AM 33.8 °F - 32.0 °F 93% 29.56 in 1.5 mi Calm Calm - N/A   Overcast
7:19 AM 33.8 °F - 30.2 °F 87% 29.56 in 3.0 mi Calm Calm - 0.01 in   Overcast
7:31 AM 33.8 °F - 30.2 °F 87% 29.56 in 2.0 mi Calm Calm - 0.01 in   Overcast
7:41 AM 33.8 °F - 30.2 °F 87% 29.55 in 3.0 mi Calm Calm - 0.02 in   Overcast
7:55 AM 33.1 °F - 30.9 °F 92% 29.57 in 4.0 mi Calm Calm - 0.02 in   Overcast
8:55 AM 33.1 °F - 30.9 °F 92% 29.55 in 6.0 mi Calm Calm - 0.03 in   Overcast
9:24 AM 33.8 °F 30.8 °F 30.2 °F 87% 29.52 in 2.5 mi West 3.5 mph - 0.01 in   Overcast
9:27 AM 33.8 °F - 30.2 °F 87% 29.52 in 3.0 mi Calm Calm - 0.01 in   Overcast
9:55 AM 34.0 °F - 32.0 °F 92% 29.55 in 5.0 mi Calm Calm - 0.01 in   Overcast
10:13 AM 33.8 °F 30.8 °F 30.2 °F 87% 29.51 in 5.0 mi SSW 3.5 mph - N/A   Overcast
10:22 AM 33.8 °F - 32.0 °F 93% 29.50 in 4.0 mi Calm Calm - 0.00 in Rain Light Rain
10:53 AM 35.6 °F - 33.8 °F 93% 29.51 in 1.8 mi Calm Calm - 0.00 in   Overcast
10:55 AM 35.1 °F - 33.1 °F 92% 29.54 in 1.8 mi Calm Calm - 0.00 in   Overcast
11:18 AM 35.6 °F 29.9 °F 32.0 °F 87% 29.52 in 3.0 mi NNW 6.9 mph - N/A   Overcast
11:55 AM 36.0 °F 29.6 °F 34.0 °F 93% 29.56 in 4.0 mi WNW 8.1 mph - 0.00 in Rain Light Rain
12:03 PM 35.6 °F 30.7 °F 33.8 °F 93% 29.53 in 7.0 mi West 5.8 mph - 0.00 in Rain Light Rain
12:55 PM 39.9 °F - 36.0 °F 86% 29.53 in 10.0 mi Calm Calm - 0.00 in   Mostly Cloudy
1:47 PM 44.6 °F 39.7 °F 37.4 °F 76% 29.51 in 10.0 mi WSW 9.2 mph - N/A   Scattered Clouds
1:55 PM 44.1 °F 40.1 °F 37.9 °F 79% 29.52 in 10.0 mi SW 6.9 mph - N/A   Partly Cloudy
2:55 PM 48.9 °F - 36.0 °F 61% 29.54 in 10.0 mi West 13.8 mph 24.2 mph N/A   Scattered Clouds
3:55 PM 51.1 °F - 27.0 °F 39% 29.57 in 10.0 mi West 25.3 mph 33.4 mph 0.01 in   Clear
4:55 PM 48.9 °F - 32.0 °F 52% 29.59 in 10.0 mi West 16.1 mph - 0.00 in   Partly Cloudy
5:55 PM 48.9 °F - 28.0 °F 44% 29.62 in 10.0 mi NW 16.1 mph 21.9 mph N/A   Scattered Clouds
6:55 PM 45.0 °F 38.2 °F 28.0 °F 52% 29.68 in 10.0 mi WNW 15.0 mph - N/A   Clear
7:55 PM 42.1 °F 33.6 °F 28.9 °F 60% 29.71 in 10.0 mi West 18.4 mph - N/A   Clear
8:55 PM 43.0 °F 33.8 °F 24.1 °F 47% 29.72 in 10.0 mi West 23.0 mph 33.4 mph N/A   Clear
9:55 PM 43.0 °F 33.1 °F 19.0 °F 38% 29.76 in 10.0 mi West 26.5 mph 40.3 mph N/A   Clear
10:55 PM 41.0 °F 30.0 °F 17.1 °F 38% 29.79 in 10.0 mi West 28.8 mph 38.0 mph N/A   Clear
11:55 PM 39.9 °F 30.2 °F 17.1 °F 40% 29.83 in 10.0 mi WNW 20.7 mph 29.9 mph N/A   Clear